Wetterdaten: Samstag, 09.03.2019
Datum Zeit Temp. A. Temp. A. min Temp. A. max Feuchte A. Luftdruck Regen Wind Richtung Richtung Sonnenschein UV Solar Windben
09.03.2019 00:00 8,2 C 8,2 C 8,3 C 76 % 1012,0 hPa 0,0 l/m 14,5 km/h (3 Bft) S-SW 202 0 min 0,0 UV-I 0 W/m 24,1 km/h (4 Bft)
09.03.2019 00:05 8,2 C 8,2 C 8,3 C 76 % 1012,0 hPa 0,0 l/m 12,9 km/h (3 Bft) S-SW 202 0 min 0,0 UV-I 0 W/m 22,5 km/h (4 Bft)
09.03.2019 00:10 8,2 C 8,2 C 8,2 C 76 % 1012,0 hPa 0,0 l/m 11,3 km/h (2 Bft) S-SW 202 0 min 0,0 UV-I 0 W/m 20,9 km/h (4 Bft)
09.03.2019 00:15 8,1 C 8,1 C 8,2 C 77 % 1011,8 hPa 0,0 l/m 9,7 km/h (2 Bft) S-SW 202 0 min 0,0 UV-I 0 W/m 17,7 km/h (3 Bft)
09.03.2019 00:20 8,1 C 8,1 C 8,2 C 78 % 1011,6 hPa 0,0 l/m 9,7 km/h (2 Bft) S-SW 202 0 min 0,0 UV-I 0 W/m 16,1 km/h (3 Bft)
09.03.2019 00:25 8,1 C 8,1 C 8,1 C 78 % 1011,4 hPa 0,0 l/m 9,7 km/h (2 Bft) S 180 0 min 0,0 UV-I 0 W/m 19,3 km/h (3 Bft)
09.03.2019 00:30 8,1 C 8,1 C 8,1 C 77 % 1011,3 hPa 0,0 l/m 9,7 km/h (2 Bft) S 180 0 min 0,0 UV-I 0 W/m 19,3 km/h (3 Bft)
09.03.2019 00:35 8,2 C 8,1 C 8,2 C 77 % 1011,2 hPa 0,0 l/m 9,7 km/h (2 Bft) S 180 0 min 0,0 UV-I 0 W/m 19,3 km/h (3 Bft)
09.03.2019 00:40 8,2 C 8,1 C 8,2 C 76 % 1011,0 hPa 0,0 l/m 11,3 km/h (2 Bft) S-SO 157 0 min 0,0 UV-I 0 W/m 19,3 km/h (3 Bft)
09.03.2019 00:45 8,2 C 8,2 C 8,2 C 76 % 1010,9 hPa 0,0 l/m 9,7 km/h (2 Bft) S-SO 157 0 min 0,0 UV-I 0 W/m 22,5 km/h (4 Bft)
09.03.2019 00:50 8,2 C 8,2 C 8,2 C 76 % 1010,7 hPa 0,0 l/m 9,7 km/h (2 Bft) S 180 0 min 0,0 UV-I 0 W/m 16,1 km/h (3 Bft)
09.03.2019 00:55 8,2 C 8,2 C 8,2 C 76 % 1010,7 hPa 0,0 l/m 9,7 km/h (2 Bft) S-SO 157 0 min 0,0 UV-I 0 W/m 20,9 km/h (4 Bft)
09.03.2019 01:00 8,2 C 8,2 C 8,2 C 76 % 1010,7 hPa 0,0 l/m 11,3 km/h (2 Bft) S 180 0 min 0,0 UV-I 0 W/m 25,7 km/h (4 Bft)
09.03.2019 01:05 8,3 C 8,2 C 8,3 C 76 % 1010,6 hPa 0,0 l/m 12,9 km/h (3 Bft) S-SO 157 0 min 0,0 UV-I 0 W/m 25,7 km/h (4 Bft)
09.03.2019 01:10 8,4 C 8,3 C 8,4 C 75 % 1010,6 hPa 0,0 l/m 12,9 km/h (3 Bft) S-SO 157 0 min 0,0 UV-I 0 W/m 22,5 km/h (4 Bft)
09.03.2019 01:15 8,5 C 8,4 C 8,5 C 75 % 1010,5 hPa 0,0 l/m 12,9 km/h (3 Bft) S-SW 202 0 min 0,0 UV-I 0 W/m 24,1 km/h (4 Bft)
09.03.2019 01:20 8,5 C 8,4 C 8,6 C 77 % 1010,6 hPa 0,0 l/m 14,5 km/h (3 Bft) S 180 0 min 0,0 UV-I 0 W/m 27,4 km/h (5 Bft)
09.03.2019 01:25 8,4 C 8,4 C 8,5 C 78 % 1010,6 hPa 0,0 l/m 14,5 km/h (3 Bft) S 180 0 min 0,0 UV-I 0 W/m 29,0 km/h (5 Bft)
09.03.2019 01:30 8,3 C 8,3 C 8,4 C 80 % 1010,6 hPa 0,2 l/m 16,1 km/h (3 Bft) S-SW 202 0 min 0,0 UV-I 0 W/m 32,2 km/h (5 Bft)
09.03.2019 01:35 8,2 C 8,2 C 8,3 C 80 % 1010,6 hPa 0,0 l/m 17,7 km/h (3 Bft) S-SW 202 0 min 0,0 UV-I 0 W/m 30,6 km/h (5 Bft)
09.03.2019 01:40 8,1 C 8,1 C 8,2 C 81 % 1010,4 hPa 0,2 l/m 19,3 km/h (3 Bft) S-SW 202 0 min 0,0 UV-I 0 W/m 40,2 km/h (6 Bft)
09.03.2019 01:45 7,9 C 7,9 C 8,1 C 82 % 1010,4 hPa 0,0 l/m 17,7 km/h (3 Bft) S-SW 202 0 min 0,0 UV-I 0 W/m 27,4 km/h (5 Bft)
09.03.2019 01:50 7,8 C 7,8 C 7,9 C 84 % 1010,2 hPa 0,2 l/m 14,5 km/h (3 Bft) S-SW 202 0 min 0,0 UV-I 0 W/m 37,0 km/h (5 Bft)
09.03.2019 01:55 7,8 C 7,8 C 7,8 C 84 % 1010,2 hPa 0,0 l/m 16,1 km/h (3 Bft) S-SW 202 0 min 0,0 UV-I 0 W/m 27,4 km/h (5 Bft)
09.03.2019 02:00 7,7 C 7,7 C 7,8 C 85 % 1010,3 hPa 0,2 l/m 16,1 km/h (3 Bft) S-SW 202 0 min 0,0 UV-I 0 W/m 30,6 km/h (5 Bft)
09.03.2019 02:05 7,6 C 7,6 C 7,7 C 86 % 1010,2 hPa 0,0 l/m 16,1 km/h (3 Bft) S-SW 202 0 min 0,0 UV-I 0 W/m 32,2 km/h (5 Bft)
09.03.2019 02:10 7,6 C 7,6 C 7,6 C 86 % 1010,0 hPa 0,0 l/m 14,5 km/h (3 Bft) S-SW 202 0 min 0,0 UV-I 0 W/m 25,7 km/h (4 Bft)
09.03.2019 02:15 7,6 C 7,6 C 7,6 C 86 % 1009,9 hPa 0,2 l/m 16,1 km/h (3 Bft) S-SW 202 0 min 0,0 UV-I 0 W/m 25,7 km/h (4 Bft)
09.03.2019 02:20 7,5 C 7,5 C 7,6 C 87 % 1009,7 hPa 0,0 l/m 12,9 km/h (3 Bft) S-SW 202 0 min 0,0 UV-I 0 W/m 29,0 km/h (5 Bft)
09.03.2019 02:25 7,5 C 7,4 C 7,6 C 87 % 1009,7 hPa 0,0 l/m 14,5 km/h (3 Bft) S-SW 202 0 min 0,0 UV-I 0 W/m 32,2 km/h (5 Bft)
09.03.2019 02:30 7,4 C 7,4 C 7,5 C 87 % 1009,4 hPa 0,0 l/m 14,5 km/h (3 Bft) S-SW 202 0 min 0,0 UV-I 0 W/m 22,5 km/h (4 Bft)
09.03.2019 02:35 7,5 C 7,4 C 7,5 C 87 % 1009,5 hPa 0,0 l/m 14,5 km/h (3 Bft) S-SW 202 0 min 0,0 UV-I 0 W/m 27,4 km/h (5 Bft)
09.03.2019 02:40 7,4 C 7,4 C 7,5 C 88 % 1009,4 hPa 0,0 l/m 16,1 km/h (3 Bft) S-SW 202 0 min 0,0 UV-I 0 W/m 32,2 km/h (5 Bft)
09.03.2019 02:45 7,3 C 7,3 C 7,4 C 89 % 1009,4 hPa 0,0 l/m 16,1 km/h (3 Bft) S-SW 202 0 min 0,0 UV-I 0 W/m 30,6 km/h (5 Bft)
09.03.2019 02:50 7,3 C 7,3 C 7,4 C 89 % 1009,3 hPa 0,0 l/m 17,7 km/h (3 Bft) S-SW 202 0 min 0,0 UV-I 0 W/m 32,2 km/h (5 Bft)
09.03.2019 02:55 7,3 C 7,2 C 7,3 C 90 % 1009,1 hPa 0,0 l/m 16,1 km/h (3 Bft) S-SW 202 0 min 0,0 UV-I 0 W/m 25,7 km/h (4 Bft)
09.03.2019 03:00 7,3 C 7,2 C 7,3 C 90 % 1009,1 hPa 0,0 l/m 17,7 km/h (3 Bft) S-SW 202 0 min 0,0 UV-I 0 W/m 24,1 km/h (4 Bft)
09.03.2019 03:05 7,3 C 7,2 C 7,3 C 90 % 1009,1 hPa 0,0 l/m 19,3 km/h (3 Bft) S-SW 202 0 min 0,0 UV-I 0 W/m 33,8 km/h (5 Bft)
09.03.2019 03:10 7,3 C 7,3 C 7,3 C 90 % 1009,0 hPa 0,0 l/m 19,3 km/h (3 Bft) S-SW 202 0 min 0,0 UV-I 0 W/m 38,6 km/h (6 Bft)
09.03.2019 03:15 7,4 C 7,3 C 7,4 C 90 % 1008,9 hPa 0,0 l/m 17,7 km/h (3 Bft) S-SW 202 0 min 0,0 UV-I 0 W/m 37,0 km/h (5 Bft)
09.03.2019 03:20 7,3 C 7,3 C 7,4 C 90 % 1009,0 hPa 0,0 l/m 17,7 km/h (3 Bft) S-SW 202 0 min 0,0 UV-I 0 W/m 40,2 km/h (6 Bft)
09.03.2019 03:25 7,3 C 7,3 C 7,3 C 90 % 1008,9 hPa 0,0 l/m 17,7 km/h (3 Bft) S-SW 202 0 min 0,0 UV-I 0 W/m 40,2 km/h (6 Bft)
09.03.2019 03:30 7,3 C 7,3 C 7,3 C 91 % 1008,8 hPa 0,0 l/m 17,7 km/h (3 Bft) S-SW 202 0 min 0,0 UV-I 0 W/m 32,2 km/h (5 Bft)
09.03.2019 03:35 7,3 C 7,3 C 7,3 C 91 % 1008,8 hPa 0,0 l/m 19,3 km/h (3 Bft) S-SW 202 0 min 0,0 UV-I 0 W/m 37,0 km/h (5 Bft)
09.03.2019 03:40 7,3 C 7,3 C 7,3 C 92 % 1008,9 hPa 0,0 l/m 17,7 km/h (3 Bft) S-SW 202 0 min 0,0 UV-I 0 W/m 29,0 km/h (5 Bft)
09.03.2019 03:45 7,3 C 7,3 C 7,3 C 92 % 1008,8 hPa 0,0 l/m 17,7 km/h (3 Bft) S-SW 202 0 min 0,0 UV-I 0 W/m 40,2 km/h (6 Bft)
09.03.2019 03:50 7,4 C 7,3 C 7,4 C 92 % 1008,9 hPa 0,0 l/m 20,9 km/h (4 Bft) S-SW 202 0 min 0,0 UV-I 0 W/m 32,2 km/h (5 Bft)
09.03.2019 03:55 7,4 C 7,3 C 7,4 C 92 % 1008,9 hPa 0,0 l/m 20,9 km/h (4 Bft) S-SW 202 0 min 0,0 UV-I 0 W/m 38,6 km/h (6 Bft)
09.03.2019 04:00 7,4 C 7,4 C 7,5 C 92 % 1009,1 hPa 0,2 l/m 20,9 km/h (4 Bft) S-SW 202 0 min 0,0 UV-I 0 W/m 29,0 km/h (5 Bft)
09.03.2019 04:05 7,4 C 7,4 C 7,5 C 92 % 1009,0 hPa 0,0 l/m 20,9 km/h (4 Bft) S-SW 202 0 min 0,0 UV-I 0 W/m 33,8 km/h (5 Bft)
09.03.2019 04:10 7,6 C 7,4 C 7,6 C 92 % 1009,0 hPa 0,0 l/m 20,9 km/h (4 Bft) SW 225 0 min 0,0 UV-I 0 W/m 33,8 km/h (5 Bft)
09.03.2019 04:15 7,6 C 7,6 C 7,6 C 92 % 1008,9 hPa 0,0 l/m 20,9 km/h (4 Bft) SW 225 0 min 0,0 UV-I 0 W/m 38,6 km/h (6 Bft)
09.03.2019 04:20 7,6 C 7,6 C 7,6 C 92 % 1009,1 hPa 0,0 l/m 19,3 km/h (3 Bft) S-SW 202 0 min 0,0 UV-I 0 W/m 35,4 km/h (5 Bft)
09.03.2019 04:25 7,7 C 7,6 C 7,7 C 92 % 1009,0 hPa 0,0 l/m 19,3 km/h (3 Bft) SW 225 0 min 0,0 UV-I 0 W/m 37,0 km/h (5 Bft)
09.03.2019 04:30 7,7 C 7,6 C 7,7 C 92 % 1008,8 hPa 0,0 l/m 19,3 km/h (3 Bft) SW 225 0 min 0,0 UV-I 0 W/m 38,6 km/h (6 Bft)
09.03.2019 04:35 7,7 C 7,6 C 7,7 C 92 % 1009,1 hPa 0,0 l/m 19,3 km/h (3 Bft) S-SW 202 0 min 0,0 UV-I 0 W/m 32,2 km/h (5 Bft)
09.03.2019 04:40 7,7 C 7,7 C 7,7 C 93 % 1008,9 hPa 0,0 l/m 19,3 km/h (3 Bft) SW 225 0 min 0,0 UV-I 0 W/m 29,0 km/h (5 Bft)
09.03.2019 04:45 7,8 C 7,7 C 7,8 C 93 % 1008,9 hPa 0,0 l/m 19,3 km/h (3 Bft) SW 225 0 min 0,0 UV-I 0 W/m 33,8 km/h (5 Bft)
09.03.2019 04:50 7,8 C 7,7 C 7,8 C 92 % 1009,1 hPa 0,0 l/m 22,5 km/h (4 Bft) SW 225 0 min 0,0 UV-I 0 W/m 30,6 km/h (5 Bft)
09.03.2019 04:55 7,8 C 7,8 C 7,8 C 92 % 1009,1 hPa 0,0 l/m 16,1 km/h (3 Bft) SW 225 0 min 0,0 UV-I 0 W/m 25,7 km/h (4 Bft)
09.03.2019 05:00 7,8 C 7,8 C 7,9 C 93 % 1009,1 hPa 0,0 l/m 19,3 km/h (3 Bft) SW 225 0 min 0,0 UV-I 0 W/m 38,6 km/h (6 Bft)
09.03.2019 05:05 7,9 C 7,8 C 7,9 C 93 % 1009,3 hPa 0,0 l/m 16,1 km/h (3 Bft) SW 225 0 min 0,0 UV-I 0 W/m 32,2 km/h (5 Bft)
09.03.2019 05:10 7,9 C 7,8 C 7,9 C 93 % 1009,4 hPa 0,0 l/m 14,5 km/h (3 Bft) SW 225 0 min 0,0 UV-I 0 W/m 29,0 km/h (5 Bft)
09.03.2019 05:15 7,9 C 7,9 C 7,9 C 93 % 1009,3 hPa 0,0 l/m 12,9 km/h (3 Bft) SW 225 0 min 0,0 UV-I 0 W/m 22,5 km/h (4 Bft)
09.03.2019 05:20 7,9 C 7,9 C 7,9 C 93 % 1009,4 hPa 0,0 l/m 14,5 km/h (3 Bft) SW 225 0 min 0,0 UV-I 0 W/m 25,7 km/h (4 Bft)
09.03.2019 05:25 7,9 C 7,9 C 7,9 C 93 % 1009,6 hPa 0,0 l/m 14,5 km/h (3 Bft) SW 225 0 min 0,0 UV-I 0 W/m 27,4 km/h (5 Bft)
09.03.2019 05:30 7,9 C 7,9 C 8,0 C 93 % 1009,6 hPa 0,0 l/m 14,5 km/h (3 Bft) SW 225 0 min 0,0 UV-I 0 W/m 27,4 km/h (5 Bft)
09.03.2019 05:35 8,2 C 7,9 C 8,2 C 93 % 1009,8 hPa 0,0 l/m 17,7 km/h (3 Bft) W 270 0 min 0,0 UV-I 0 W/m 30,6 km/h (5 Bft)
09.03.2019 05:40 8,2 C 8,2 C 8,2 C 93 % 1009,9 hPa 0,0 l/m 14,5 km/h (3 Bft) SW 225 0 min 0,0 UV-I 0 W/m 29,0 km/h (5 Bft)
09.03.2019 05:45 8,2 C 8,2 C 8,2 C 93 % 1009,8 hPa 0,0 l/m 11,3 km/h (2 Bft) SW 225 0 min 0,0 UV-I 0 W/m 22,5 km/h (4 Bft)
09.03.2019 05:50 8,2 C 8,2 C 8,3 C 92 % 1009,8 hPa 0,0 l/m 11,3 km/h (2 Bft) W 270 0 min 0,0 UV-I 0 W/m 22,5 km/h (4 Bft)
09.03.2019 05:55 8,3 C 8,2 C 8,3 C 92 % 1009,9 hPa 0,0 l/m 12,9 km/h (3 Bft) W 270 0 min 0,0 UV-I 0 W/m 22,5 km/h (4 Bft)
09.03.2019 06:00 8,3 C 8,3 C 8,4 C 92 % 1010,1 hPa 0,0 l/m 12,9 km/h (3 Bft) S-SW 202 0 min 0,0 UV-I 0 W/m 27,4 km/h (5 Bft)
09.03.2019 06:05 8,3 C 8,3 C 8,4 C 92 % 1010,2 hPa 0,0 l/m 14,5 km/h (3 Bft) W-SW 247 0 min 0,0 UV-I 0 W/m 24,1 km/h (4 Bft)
09.03.2019 06:10 8,4 C 8,3 C 8,4 C 91 % 1009,9 hPa 0,0 l/m 12,9 km/h (3 Bft) W-SW 247 0 min 0,0 UV-I 0 W/m 20,9 km/h (4 Bft)
09.03.2019 06:15 8,3 C 8,3 C 8,4 C 91 % 1009,9 hPa 0,0 l/m 11,3 km/h (2 Bft) W 270 0 min 0,0 UV-I 0 W/m 20,9 km/h (4 Bft)
09.03.2019 06:20 8,3 C 8,3 C 8,3 C 91 % 1010,2 hPa 0,0 l/m 11,3 km/h (2 Bft) W 270 0 min 0,0 UV-I 0 W/m 24,1 km/h (4 Bft)
09.03.2019 06:25 8,2 C 8,2 C 8,3 C 91 % 1010,2 hPa 0,0 l/m 9,7 km/h (2 Bft) W-SW 247 0 min 0,0 UV-I 0 W/m 32,2 km/h (5 Bft)
09.03.2019 06:30 8,3 C 8,3 C 8,3 C 91 % 1010,5 hPa 0,0 l/m 9,7 km/h (2 Bft) W 270 0 min 0,0 UV-I 0 W/m 20,9 km/h (4 Bft)
09.03.2019 06:35 8,4 C 8,3 C 8,4 C 91 % 1010,5 hPa 0,0 l/m 11,3 km/h (2 Bft) SW 225 0 min 0,0 UV-I 0 W/m 20,9 km/h (4 Bft)
09.03.2019 06:40 8,2 C 8,2 C 8,4 C 91 % 1010,4 hPa 0,0 l/m 9,7 km/h (2 Bft) SW 225 0 min 0,0 UV-I 0 W/m 22,5 km/h (4 Bft)
09.03.2019 06:45 8,2 C 8,2 C 8,2 C 91 % 1010,5 hPa 0,0 l/m 11,3 km/h (2 Bft) S-SW 202 0 min 0,0 UV-I 0 W/m 30,6 km/h (5 Bft)
09.03.2019 06:50 8,2 C 8,1 C 8,3 C 91 % 1010,4 hPa 0,0 l/m 11,3 km/h (2 Bft) SW 225 0 min 0,0 UV-I 0 W/m 24,1 km/h (4 Bft)
09.03.2019 06:55 8,2 C 8,1 C 8,2 C 91 % 1010,2 hPa 0,0 l/m 14,5 km/h (3 Bft) SW 225 0 min 0,0 UV-I 0 W/m 24,1 km/h (4 Bft)
09.03.2019 07:00 8,1 C 8,1 C 8,2 C 91 % 1010,3 hPa 0,0 l/m 12,9 km/h (3 Bft) SW 225 0 min 0,0 UV-I 0 W/m 22,5 km/h (4 Bft)
09.03.2019 07:05 8,1 C 8,0 C 8,1 C 91 % 1010,4 hPa 0,0 l/m 11,3 km/h (2 Bft) SW 225 0 min 0,0 UV-I 5 W/m 20,9 km/h (4 Bft)
09.03.2019 07:10 8,1 C 8,0 C 8,1 C 91 % 1010,5 hPa 0,0 l/m 11,3 km/h (2 Bft) SW 225 0 min 0,0 UV-I 5 W/m 20,9 km/h (4 Bft)
09.03.2019 07:15 8,0 C 8,0 C 8,1 C 92 % 1010,6 hPa 0,0 l/m 9,7 km/h (2 Bft) S-SW 202 5 min 0,0 UV-I 18 W/m 14,5 km/h (3 Bft)
09.03.2019 07:20 8,1 C 8,0 C 8,1 C 92 % 1010,5 hPa 0,0 l/m 12,9 km/h (3 Bft) SW 225 5 min 0,0 UV-I 26 W/m 20,9 km/h (4 Bft)
09.03.2019 07:25 8,2 C 8,1 C 8,2 C 92 % 1010,9 hPa 0,0 l/m 9,7 km/h (2 Bft) SW 225 0 min 0,0 UV-I 26 W/m 17,7 km/h (3 Bft)
09.03.2019 07:30 8,3 C 8,2 C 8,3 C 91 % 1011,3 hPa 0,0 l/m 14,5 km/h (3 Bft) SW 225 5 min 0,0 UV-I 47 W/m 24,1 km/h (4 Bft)
09.03.2019 07:35 8,4 C 8,3 C 8,5 C 91 % 1011,3 hPa 0,0 l/m 11,3 km/h (2 Bft) S-SW 202 5 min 0,0 UV-I 49 W/m 20,9 km/h (4 Bft)
09.03.2019 07:40 8,5 C 8,4 C 8,6 C 91 % 1011,3 hPa 0,0 l/m 14,5 km/h (3 Bft) SW 225 0 min 0,0 UV-I 49 W/m 20,9 km/h (4 Bft)
09.03.2019 07:45 8,5 C 8,5 C 8,6 C 92 % 1011,3 hPa 0,0 l/m 14,5 km/h (3 Bft) S-SW 202 0 min 0,0 UV-I 49 W/m 24,1 km/h (4 Bft)
09.03.2019 07:50 8,6 C 8,6 C 8,6 C 91 % 1011,4 hPa 0,0 l/m 12,9 km/h (3 Bft) SW 225 0 min 0,0 UV-I 47 W/m 20,9 km/h (4 Bft)
09.03.2019 07:55 8,6 C 8,6 C 8,6 C 92 % 1011,4 hPa 0,0 l/m 14,5 km/h (3 Bft) S-SW 202 0 min 0,0 UV-I 47 W/m 25,7 km/h (4 Bft)
09.03.2019 08:00 8,7 C 8,6 C 8,7 C 91 % 1011,3 hPa 0,0 l/m 16,1 km/h (3 Bft) SW 225 0 min 0,0 UV-I 42 W/m 27,4 km/h (5 Bft)
09.03.2019 08:05 8,8 C 8,7 C 8,8 C 91 % 1011,8 hPa 0,0 l/m 12,9 km/h (3 Bft) S-SW 202 0 min 0,0 UV-I 35 W/m 27,4 km/h (5 Bft)
09.03.2019 08:10 8,8 C 8,7 C 8,8 C 91 % 1011,8 hPa 0,0 l/m 12,9 km/h (3 Bft) SW 225 0 min 0,0 UV-I 33 W/m 22,5 km/h (4 Bft)
09.03.2019 08:15 8,8 C 8,7 C 8,8 C 91 % 1011,6 hPa 0,0 l/m 14,5 km/h (3 Bft) SW 225 0 min 0,0 UV-I 39 W/m 29,0 km/h (5 Bft)
09.03.2019 08:20 8,8 C 8,8 C 8,8 C 91 % 1011,5 hPa 0,0 l/m 16,1 km/h (3 Bft) SW 225 0 min 0,0 UV-I 40 W/m 29,0 km/h (5 Bft)
09.03.2019 08:25 8,8 C 8,8 C 8,8 C 91 % 1011,7 hPa 0,0 l/m 14,5 km/h (3 Bft) SW 225 0 min 0,0 UV-I 40 W/m 27,4 km/h (5 Bft)
09.03.2019 08:30 8,9 C 8,8 C 8,9 C 91 % 1012,2 hPa 0,0 l/m 14,5 km/h (3 Bft) SW 225 0 min 0,0 UV-I 44 W/m 25,7 km/h (4 Bft)
09.03.2019 08:35 9,0 C 8,9 C 9,1 C 90 % 1011,9 hPa 0,0 l/m 17,7 km/h (3 Bft) SW 225 0 min 0,0 UV-I 49 W/m 33,8 km/h (5 Bft)
09.03.2019 08:40 9,1 C 9,0 C 9,1 C 90 % 1012,1 hPa 0,0 l/m 16,1 km/h (3 Bft) SW 225 0 min 0,0 UV-I 58 W/m 33,8 km/h (5 Bft)
09.03.2019 08:45 9,1 C 9,0 C 9,1 C 89 % 1012,0 hPa 0,0 l/m 16,1 km/h (3 Bft) S-SW 202 0 min 0,0 UV-I 60 W/m 27,4 km/h (5 Bft)
09.03.2019 08:50 9,1 C 9,1 C 9,2 C 89 % 1011,9 hPa 0,0 l/m 17,7 km/h (3 Bft) SW 225 0 min 0,0 UV-I 63 W/m 30,6 km/h (5 Bft)
09.03.2019 08:55 9,2 C 9,1 C 9,2 C 89 % 1011,9 hPa 0,0 l/m 20,9 km/h (4 Bft) SW 225 0 min 0,0 UV-I 65 W/m 35,4 km/h (5 Bft)
09.03.2019 09:00 9,3 C 9,2 C 9,3 C 89 % 1012,1 hPa 0,0 l/m 17,7 km/h (3 Bft) SW 225 0 min 0,0 UV-I 63 W/m 33,8 km/h (5 Bft)
09.03.2019 09:05 9,2 C 9,2 C 9,3 C 89 % 1012,0 hPa 0,0 l/m 17,7 km/h (3 Bft) SW 225 0 min 0,0 UV-I 62 W/m 30,6 km/h (5 Bft)
09.03.2019 09:10 9,3 C 9,2 C 9,3 C 89 % 1012,3 hPa 0,0 l/m 17,7 km/h (3 Bft) SW 225 0 min 0,5 UV-I 81 W/m 29,0 km/h (5 Bft)
09.03.2019 09:15 9,3 C 9,3 C 9,3 C 89 % 1012,2 hPa 0,0 l/m 19,3 km/h (3 Bft) S-SW 202 0 min 0,5 UV-I 83 W/m 29,0 km/h (5 Bft)
09.03.2019 09:20 9,3 C 9,3 C 9,4 C 89 % 1012,0 hPa 0,0 l/m 17,7 km/h (3 Bft) S-SW 202 0 min 0,0 UV-I 72 W/m 32,2 km/h (5 Bft)
09.03.2019 09:25 9,4 C 9,3 C 9,4 C 89 % 1011,9 hPa 0,0 l/m 19,3 km/h (3 Bft) S-SW 202 0 min 0,0 UV-I 62 W/m 33,8 km/h (5 Bft)
09.03.2019 09:30 9,4 C 9,4 C 9,5 C 89 % 1011,9 hPa 0,0 l/m 19,3 km/h (3 Bft) S-SW 202 0 min 0,0 UV-I 56 W/m 30,6 km/h (5 Bft)
09.03.2019 09:35 9,5 C 9,4 C 9,5 C 88 % 1011,9 hPa 0,0 l/m 17,7 km/h (3 Bft) S-SW 202 0 min 0,5 UV-I 76 W/m 32,2 km/h (5 Bft)
09.03.2019 09:40 9,6 C 9,5 C 9,6 C 88 % 1012,0 hPa 0,0 l/m 20,9 km/h (4 Bft) SW 225 0 min 0,5 UV-I 88 W/m 33,8 km/h (5 Bft)
09.03.2019 09:45 9,6 C 9,6 C 9,7 C 88 % 1012,2 hPa 0,0 l/m 19,3 km/h (3 Bft) SW 225 0 min 0,5 UV-I 81 W/m 35,4 km/h (5 Bft)
09.03.2019 09:50 9,7 C 9,6 C 9,7 C 88 % 1012,2 hPa 0,0 l/m 17,7 km/h (3 Bft) S-SW 202 0 min 0,6 UV-I 91 W/m 32,2 km/h (5 Bft)
09.03.2019 09:55 9,7 C 9,6 C 9,7 C 88 % 1012,4 hPa 0,0 l/m 16,1 km/h (3 Bft) SW 225 0 min 0,7 UV-I 107 W/m 30,6 km/h (5 Bft)
09.03.2019 10:00 9,8 C 9,7 C 9,8 C 87 % 1012,4 hPa 0,0 l/m 20,9 km/h (4 Bft) SW 225 0 min 0,7 UV-I 105 W/m 35,4 km/h (5 Bft)
09.03.2019 10:05 9,9 C 9,8 C 9,9 C 87 % 1012,4 hPa 0,0 l/m 20,9 km/h (4 Bft) SW 225 0 min 0,7 UV-I 98 W/m 35,4 km/h (5 Bft)
09.03.2019 10:10 9,9 C 9,8 C 9,9 C 86 % 1012,3 hPa 0,0 l/m 20,9 km/h (4 Bft) S-SW 202 0 min 0,7 UV-I 104 W/m 41,8 km/h (6 Bft)
09.03.2019 10:15 9,9 C 9,9 C 9,9 C 86 % 1012,4 hPa 0,0 l/m 19,3 km/h (3 Bft) SW 225 0 min 0,8 UV-I 125 W/m 35,4 km/h (5 Bft)
09.03.2019 10:20 9,9 C 9,9 C 10,0 C 86 % 1012,1 hPa 0,0 l/m 17,7 km/h (3 Bft) SW 225 0 min 0,8 UV-I 111 W/m 30,6 km/h (5 Bft)
09.03.2019 10:25 9,9 C 9,9 C 9,9 C 86 % 1012,0 hPa 0,0 l/m 19,3 km/h (3 Bft) S-SW 202 0 min 0,8 UV-I 114 W/m 30,6 km/h (5 Bft)
09.03.2019 10:30 10,1 C 9,9 C 10,1 C 85 % 1012,2 hPa 0,0 l/m 19,3 km/h (3 Bft) S-SW 202 0 min 1,0 UV-I 141 W/m 35,4 km/h (5 Bft)
09.03.2019 10:35 10,2 C 10,0 C 10,2 C 86 % 1012,5 hPa 0,0 l/m 20,9 km/h (4 Bft) SW 225 0 min 1,1 UV-I 207 W/m 32,2 km/h (5 Bft)
09.03.2019 10:40 10,3 C 10,2 C 10,3 C 85 % 1012,6 hPa 0,0 l/m 20,9 km/h (4 Bft) S-SW 202 0 min 1,0 UV-I 218 W/m 32,2 km/h (5 Bft)
09.03.2019 10:45 10,3 C 10,3 C 10,4 C 85 % 1012,7 hPa 0,0 l/m 16,1 km/h (3 Bft) SW 225 0 min 0,9 UV-I 132 W/m 25,7 km/h (4 Bft)
09.03.2019 10:50 10,3 C 10,3 C 10,3 C 85 % 1012,6 hPa 0,0 l/m 19,3 km/h (3 Bft) S-SW 202 0 min 0,9 UV-I 151 W/m 40,2 km/h (6 Bft)
09.03.2019 10:55 10,3 C 10,3 C 10,3 C 85 % 1012,4 hPa 0,0 l/m 19,3 km/h (3 Bft) SW 225 0 min 0,9 UV-I 156 W/m 29,0 km/h (5 Bft)
09.03.2019 11:00 10,3 C 10,3 C 10,3 C 84 % 1012,3 hPa 0,0 l/m 20,9 km/h (4 Bft) S-SW 202 0 min 1,0 UV-I 149 W/m 32,2 km/h (5 Bft)
09.03.2019 11:05 10,4 C 10,3 C 10,4 C 85 % 1012,3 hPa 0,0 l/m 19,3 km/h (3 Bft) S-SW 202 0 min 1,1 UV-I 181 W/m 30,6 km/h (5 Bft)
09.03.2019 11:10 10,5 C 10,4 C 10,6 C 84 % 1012,2 hPa 0,0 l/m 17,7 km/h (3 Bft) S-SW 202 0 min 1,1 UV-I 202 W/m 25,7 km/h (4 Bft)
09.03.2019 11:15 10,5 C 10,4 C 10,5 C 83 % 1012,1 hPa 0,0 l/m 20,9 km/h (4 Bft) S-SW 202 0 min 1,0 UV-I 160 W/m 32,2 km/h (5 Bft)
09.03.2019 11:20 10,4 C 10,4 C 10,5 C 83 % 1012,2 hPa 0,0 l/m 22,5 km/h (4 Bft) S-SW 202 0 min 0,7 UV-I 113 W/m 37,0 km/h (5 Bft)
09.03.2019 11:25 10,3 C 10,3 C 10,4 C 83 % 1012,1 hPa 0,0 l/m 20,9 km/h (4 Bft) S-SW 202 0 min 0,6 UV-I 91 W/m 38,6 km/h (6 Bft)
09.03.2019 11:30 10,4 C 10,3 C 10,4 C 82 % 1012,1 hPa 0,0 l/m 24,1 km/h (4 Bft) S-SW 202 0 min 0,7 UV-I 97 W/m 40,2 km/h (6 Bft)
09.03.2019 11:35 10,4 C 10,3 C 10,4 C 82 % 1011,9 hPa 0,0 l/m 20,9 km/h (4 Bft) S-SW 202 0 min 0,9 UV-I 139 W/m 30,6 km/h (5 Bft)
09.03.2019 11:40 10,5 C 10,4 C 10,5 C 82 % 1011,7 hPa 0,0 l/m 20,9 km/h (4 Bft) S-SW 202 0 min 1,2 UV-I 181 W/m 41,8 km/h (6 Bft)
09.03.2019 11:45 10,6 C 10,4 C 10,6 C 82 % 1011,6 hPa 0,0 l/m 19,3 km/h (3 Bft) S-SW 202 0 min 1,2 UV-I 179 W/m 30,6 km/h (5 Bft)
09.03.2019 11:50 10,7 C 10,6 C 10,7 C 83 % 1011,5 hPa 0,0 l/m 16,1 km/h (3 Bft) S-SW 202 0 min 1,4 UV-I 209 W/m 27,4 km/h (5 Bft)
09.03.2019 11:55 10,8 C 10,7 C 10,8 C 81 % 1011,5 hPa 0,0 l/m 17,7 km/h (3 Bft) S-SW 202 0 min 1,3 UV-I 200 W/m 35,4 km/h (5 Bft)
09.03.2019 12:00 10,7 C 10,7 C 10,8 C 81 % 1011,3 hPa 0,0 l/m 22,5 km/h (4 Bft) S-SW 202 0 min 1,3 UV-I 185 W/m 35,4 km/h (5 Bft)
09.03.2019 12:05 10,8 C 10,7 C 10,8 C 82 % 1011,2 hPa 0,0 l/m 19,3 km/h (3 Bft) S-SW 202 0 min 1,2 UV-I 188 W/m 30,6 km/h (5 Bft)
09.03.2019 12:10 10,8 C 10,7 C 10,8 C 81 % 1011,3 hPa 0,0 l/m 20,9 km/h (4 Bft) S-SW 202 0 min 1,1 UV-I 169 W/m 33,8 km/h (5 Bft)
09.03.2019 12:15 10,8 C 10,7 C 10,8 C 79 % 1011,3 hPa 0,0 l/m 22,5 km/h (4 Bft) S-SW 202 0 min 1,3 UV-I 199 W/m 43,5 km/h (6 Bft)
09.03.2019 12:20 10,8 C 10,8 C 10,8 C 79 % 1011,3 hPa 0,0 l/m 24,1 km/h (4 Bft) S-SW 202 0 min 1,3 UV-I 200 W/m 41,8 km/h (6 Bft)
09.03.2019 12:25 10,8 C 10,8 C 10,8 C 79 % 1011,6 hPa 0,0 l/m 24,1 km/h (4 Bft) S-SW 202 0 min 1,0 UV-I 146 W/m 41,8 km/h (6 Bft)
09.03.2019 12:30 10,8 C 10,8 C 10,8 C 79 % 1011,6 hPa 0,0 l/m 27,4 km/h (5 Bft) S-SW 202 0 min 1,0 UV-I 146 W/m 46,7 km/h (6 Bft)
09.03.2019 12:35 10,8 C 10,8 C 10,8 C 78 % 1011,5 hPa 0,0 l/m 25,7 km/h (4 Bft) S-SW 202 0 min 1,1 UV-I 153 W/m 48,3 km/h (6 Bft)
09.03.2019 12:40 11,0 C 10,8 C 11,0 C 78 % 1011,3 hPa 0,0 l/m 24,1 km/h (4 Bft) S-SW 202 0 min 1,6 UV-I 250 W/m 37,0 km/h (5 Bft)
09.03.2019 12:45 11,2 C 10,9 C 11,2 C 77 % 1011,1 hPa 0,0 l/m 25,7 km/h (4 Bft) SW 225 0 min 1,9 UV-I 278 W/m 40,2 km/h (6 Bft)
09.03.2019 12:50 11,3 C 11,2 C 11,3 C 77 % 1010,9 hPa 0,0 l/m 24,1 km/h (4 Bft) S-SW 202 0 min 2,6 UV-I 301 W/m 43,5 km/h (6 Bft)
09.03.2019 12:55 11,5 C 11,3 C 11,5 C 76 % 1011,0 hPa 0,0 l/m 27,4 km/h (5 Bft) S-SW 202 0 min 2,3 UV-I 306 W/m 53,1 km/h (7 Bft)
09.03.2019 13:00 11,7 C 11,5 C 11,7 C 75 % 1010,8 hPa 0,0 l/m 27,4 km/h (5 Bft) SW 225 5 min 2,7 UV-I 482 W/m 53,1 km/h (7 Bft)
09.03.2019 13:05 11,9 C 11,7 C 11,9 C 75 % 1010,6 hPa 0,0 l/m 24,1 km/h (4 Bft) S-SW 202 5 min 2,3 UV-I 411 W/m 38,6 km/h (6 Bft)
09.03.2019 13:10 12,1 C 11,9 C 12,1 C 72 % 1010,8 hPa 0,0 l/m 27,4 km/h (5 Bft) S-SW 202 5 min 2,9 UV-I 357 W/m 46,7 km/h (6 Bft)
09.03.2019 13:15 11,9 C 11,9 C 12,1 C 74 % 1010,5 hPa 0,0 l/m 29,0 km/h (5 Bft) S-SW 202 0 min 1,9 UV-I 274 W/m 49,9 km/h (7 Bft)
09.03.2019 13:20 11,9 C 11,9 C 11,9 C 72 % 1010,5 hPa 0,0 l/m 27,4 km/h (5 Bft) S-SW 202 0 min 1,8 UV-I 248 W/m 41,8 km/h (6 Bft)
09.03.2019 13:25 11,9 C 11,8 C 11,9 C 72 % 1010,4 hPa 0,0 l/m 30,6 km/h (5 Bft) S-SW 202 0 min 1,9 UV-I 304 W/m 53,1 km/h (7 Bft)
09.03.2019 13:30 11,9 C 11,9 C 11,9 C 72 % 1010,3 hPa 0,0 l/m 29,0 km/h (5 Bft) SW 225 0 min 1,6 UV-I 241 W/m 40,2 km/h (6 Bft)
09.03.2019 13:35 12,1 C 11,9 C 12,1 C 70 % 1009,9 hPa 0,0 l/m 27,4 km/h (5 Bft) S-SW 202 0 min 2,7 UV-I 272 W/m 56,3 km/h (7 Bft)
09.03.2019 13:40 12,1 C 12,0 C 12,1 C 71 % 1010,1 hPa 0,0 l/m 27,4 km/h (5 Bft) SW 225 0 min 1,8 UV-I 216 W/m 45,1 km/h (6 Bft)
09.03.2019 13:45 11,9 C 11,9 C 12,1 C 71 % 1010,2 hPa 0,0 l/m 27,4 km/h (5 Bft) S-SW 202 0 min 1,5 UV-I 220 W/m 41,8 km/h (6 Bft)
09.03.2019 13:50 11,6 C 11,6 C 11,9 C 72 % 1010,1 hPa 0,0 l/m 30,6 km/h (5 Bft) SW 225 0 min 1,1 UV-I 176 W/m 51,5 km/h (7 Bft)
09.03.2019 13:55 11,6 C 11,6 C 11,6 C 71 % 1009,7 hPa 0,0 l/m 32,2 km/h (5 Bft) SW 225 0 min 1,4 UV-I 207 W/m 48,3 km/h (6 Bft)
09.03.2019 14:00 11,6 C 11,6 C 11,6 C 71 % 1009,5 hPa 0,0 l/m 32,2 km/h (5 Bft) SW 225 0 min 1,3 UV-I 186 W/m 49,9 km/h (7 Bft)
09.03.2019 14:05 11,8 C 11,6 C 11,8 C 71 % 1009,5 hPa 0,0 l/m 33,8 km/h (5 Bft) S-SW 202 0 min 2,5 UV-I 274 W/m 56,3 km/h (7 Bft)
09.03.2019 14:10 11,8 C 11,8 C 11,9 C 72 % 1009,3 hPa 0,0 l/m 29,0 km/h (5 Bft) S-SW 202 5 min 2,3 UV-I 288 W/m 45,1 km/h (6 Bft)
09.03.2019 14:15 11,7 C 11,7 C 11,8 C 71 % 1009,2 hPa 0,0 l/m 27,4 km/h (5 Bft) S-SW 202 0 min 1,6 UV-I 158 W/m 43,5 km/h (6 Bft)
09.03.2019 14:20 11,6 C 11,5 C 11,7 C 71 % 1009,3 hPa 0,0 l/m 32,2 km/h (5 Bft) SW 225 0 min 1,1 UV-I 220 W/m 46,7 km/h (6 Bft)
09.03.2019 14:25 11,7 C 11,5 C 11,7 C 72 % 1009,2 hPa 0,0 l/m 25,7 km/h (4 Bft) SW 225 5 min 1,7 UV-I 308 W/m 41,8 km/h (6 Bft)
09.03.2019 14:30 11,4 C 11,4 C 11,7 C 73 % 1009,2 hPa 0,0 l/m 25,7 km/h (4 Bft) S-SW 202 0 min 1,1 UV-I 206 W/m 40,2 km/h (6 Bft)
09.03.2019 14:35 10,6 C 10,6 C 11,3 C 78 % 1009,7 hPa 0,0 l/m 29,0 km/h (5 Bft) S-SW 202 0 min 0,5 UV-I 65 W/m 57,9 km/h (7 Bft)
09.03.2019 14:40 9,9 C 9,9 C 10,6 C 82 % 1009,5 hPa 0,0 l/m 35,4 km/h (5 Bft) SW 225 0 min 0,8 UV-I 125 W/m 57,9 km/h (7 Bft)
09.03.2019 14:45 9,6 C 9,6 C 9,9 C 85 % 1009,5 hPa 0,0 l/m 22,5 km/h (4 Bft) SW 225 0 min 0,7 UV-I 93 W/m 51,5 km/h (7 Bft)
09.03.2019 14:50 9,6 C 9,4 C 9,6 C 87 % 1009,2 hPa 0,0 l/m 17,7 km/h (3 Bft) SW 225 5 min 1,9 UV-I 366 W/m 37,0 km/h (5 Bft)
09.03.2019 14:55 10,2 C 9,7 C 10,2 C 86 % 1008,9 hPa 0,0 l/m 19,3 km/h (3 Bft) SW 225 5 min 2,0 UV-I 327 W/m 35,4 km/h (5 Bft)
09.03.2019 15:00 10,7 C 10,2 C 10,7 C 84 % 1008,7 hPa 0,0 l/m 20,9 km/h (4 Bft) S-SW 202 5 min 2,1 UV-I 478 W/m 33,8 km/h (5 Bft)
09.03.2019 15:05 10,8 C 10,7 C 10,8 C 85 % 1008,6 hPa 0,0 l/m 20,9 km/h (4 Bft) S-SW 202 5 min 2,1 UV-I 288 W/m 37,0 km/h (5 Bft)
09.03.2019 15:10 11,1 C 10,8 C 11,1 C 81 % 1009,1 hPa 0,0 l/m 24,1 km/h (4 Bft) SW 225 5 min 2,0 UV-I 555 W/m 53,1 km/h (7 Bft)
09.03.2019 15:15 10,7 C 10,7 C 11,1 C 80 % 1008,7 hPa 0,0 l/m 32,2 km/h (5 Bft) S-SW 202 0 min 1,4 UV-I 134 W/m 51,5 km/h (7 Bft)
09.03.2019 15:20 10,3 C 10,3 C 10,7 C 83 % 1008,8 hPa 0,0 l/m 24,1 km/h (4 Bft) S-SW 202 0 min 0,8 UV-I 90 W/m 48,3 km/h (6 Bft)
09.03.2019 15:25 10,3 C 10,3 C 10,4 C 83 % 1008,6 hPa 0,0 l/m 22,5 km/h (4 Bft) SW 225 0 min 0,7 UV-I 135 W/m 37,0 km/h (5 Bft)
09.03.2019 15:30 10,4 C 10,3 C 10,4 C 83 % 1008,6 hPa 0,0 l/m 25,7 km/h (4 Bft) S-SW 202 0 min 0,8 UV-I 169 W/m 46,7 km/h (6 Bft)
09.03.2019 15:35 10,3 C 10,3 C 10,4 C 83 % 1008,5 hPa 0,0 l/m 29,0 km/h (5 Bft) SW 225 0 min 0,6 UV-I 137 W/m 48,3 km/h (6 Bft)
09.03.2019 15:40 10,7 C 10,3 C 10,7 C 84 % 1008,2 hPa 0,0 l/m 25,7 km/h (4 Bft) SW 225 5 min 1,2 UV-I 325 W/m 48,3 km/h (6 Bft)
09.03.2019 15:45 11,3 C 10,8 C 11,3 C 80 % 1008,5 hPa 0,0 l/m 30,6 km/h (5 Bft) SW 225 5 min 1,3 UV-I 330 W/m 48,3 km/h (6 Bft)
09.03.2019 15:50 11,3 C 11,2 C 11,3 C 80 % 1008,7 hPa 0,0 l/m 20,9 km/h (4 Bft) SW 225 5 min 1,2 UV-I 209 W/m 40,2 km/h (6 Bft)
09.03.2019 15:55 11,0 C 11,0 C 11,3 C 79 % 1008,7 hPa 0,0 l/m 22,5 km/h (4 Bft) SW 225 0 min 1,0 UV-I 149 W/m 41,8 km/h (6 Bft)
09.03.2019 16:00 10,8 C 10,8 C 11,0 C 80 % 1008,7 hPa 0,0 l/m 19,3 km/h (3 Bft) SW 225 0 min 0,7 UV-I 149 W/m 41,8 km/h (6 Bft)
09.03.2019 16:05 10,8 C 10,8 C 10,9 C 79 % 1008,7 hPa 0,0 l/m 24,1 km/h (4 Bft) SW 225 0 min 0,7 UV-I 141 W/m 43,5 km/h (6 Bft)
09.03.2019 16:10 10,7 C 10,7 C 10,8 C 81 % 1008,5 hPa 0,0 l/m 19,3 km/h (3 Bft) SW 225 0 min 0,0 UV-I 51 W/m 35,4 km/h (5 Bft)
09.03.2019 16:15 10,2 C 10,2 C 10,6 C 83 % 1008,2 hPa 0,0 l/m 19,3 km/h (3 Bft) W 270 0 min 0,0 UV-I 47 W/m 46,7 km/h (6 Bft)
09.03.2019 16:20 10,1 C 10,0 C 10,2 C 85 % 1008,6 hPa 0,0 l/m 12,9 km/h (3 Bft) W 270 0 min 0,0 UV-I 49 W/m 33,8 km/h (5 Bft)
09.03.2019 16:25 10,3 C 10,1 C 10,3 C 82 % 1008,9 hPa 0,0 l/m 17,7 km/h (3 Bft) W 270 0 min 0,5 UV-I 116 W/m 29,0 km/h (5 Bft)
09.03.2019 16:30 10,4 C 10,3 C 10,4 C 81 % 1008,9 hPa 0,0 l/m 16,1 km/h (3 Bft) W 270 0 min 0,5 UV-I 72 W/m 38,6 km/h (6 Bft)
09.03.2019 16:35 10,4 C 10,4 C 10,5 C 79 % 1009,3 hPa 0,2 l/m 22,5 km/h (4 Bft) W 270 0 min 0,0 UV-I 11 W/m 56,3 km/h (7 Bft)
09.03.2019 16:40 9,7 C 9,7 C 10,4 C 81 % 1009,3 hPa 0,2 l/m 43,5 km/h (6 Bft) W 270 0 min 0,0 UV-I 9 W/m 67,6 km/h (8 Bft)
09.03.2019 16:45 8,9 C 8,9 C 9,6 C 81 % 1009,6 hPa 0,4 l/m 45,1 km/h (6 Bft) W 270 0 min 0,0 UV-I 19 W/m 69,2 km/h (8 Bft)
09.03.2019 16:50 8,8 C 8,7 C 8,9 C 77 % 1009,2 hPa 0,0 l/m 37,0 km/h (5 Bft) W 270 0 min 0,0 UV-I 42 W/m 62,8 km/h (7 Bft)
09.03.2019 16:55 8,9 C 8,7 C 8,9 C 77 % 1009,4 hPa 0,0 l/m 30,6 km/h (5 Bft) W 270 0 min 0,0 UV-I 46 W/m 45,1 km/h (6 Bft)
09.03.2019 17:00 9,7 C 8,9 C 9,7 C 74 % 1009,8 hPa 0,0 l/m 40,2 km/h (6 Bft) W 270 0 min 0,0 UV-I 30 W/m 57,9 km/h (7 Bft)
09.03.2019 17:05 9,9 C 9,7 C 9,9 C 72 % 1009,7 hPa 0,0 l/m 38,6 km/h (6 Bft) W 270 0 min 0,0 UV-I 37 W/m 62,8 km/h (7 Bft)
09.03.2019 17:10 9,7 C 9,7 C 9,9 C 74 % 1010,0 hPa 0,0 l/m 32,2 km/h (5 Bft) W 270 0 min 0,0 UV-I 21 W/m 46,7 km/h (6 Bft)
09.03.2019 17:15 9,3 C 9,3 C 9,8 C 75 % 1010,2 hPa 0,2 l/m 32,2 km/h (5 Bft) W 270 0 min 0,0 UV-I 9 W/m 48,3 km/h (6 Bft)
09.03.2019 17:20 7,4 C 7,4 C 9,3 C 82 % 1011,1 hPa 0,6 l/m 53,1 km/h (7 Bft) W 270 0 min 0,0 UV-I 9 W/m 74,0 km/h (9 Bft)
09.03.2019 17:25 7,0 C 7,0 C 7,4 C 83 % 1011,4 hPa 0,0 l/m 40,2 km/h (6 Bft) W 270 0 min 0,0 UV-I 7 W/m 61,2 km/h (7 Bft)
09.03.2019 17:30 6,9 C 6,9 C 7,0 C 85 % 1011,4 hPa 0,2 l/m 35,4 km/h (5 Bft) W 270 0 min 0,0 UV-I 7 W/m 56,3 km/h (7 Bft)
09.03.2019 17:35 7,2 C 6,9 C 7,2 C 82 % 1011,5 hPa 0,0 l/m 37,0 km/h (5 Bft) W 270 0 min 0,0 UV-I 5 W/m 62,8 km/h (7 Bft)
09.03.2019 17:40 7,6 C 7,2 C 7,6 C 79 % 1011,4 hPa 0,0 l/m 41,8 km/h (6 Bft) W 270 0 min 0,0 UV-I 11 W/m 61,2 km/h (7 Bft)
09.03.2019 17:45 7,7 C 7,6 C 7,7 C 79 % 1011,6 hPa 0,0 l/m 30,6 km/h (5 Bft) W 270 0 min 0,0 UV-I 32 W/m 49,9 km/h (7 Bft)
09.03.2019 17:50 7,8 C 7,7 C 7,9 C 79 % 1011,5 hPa 0,0 l/m 27,4 km/h (5 Bft) W 270 0 min 0,0 UV-I 47 W/m 43,5 km/h (6 Bft)
09.03.2019 17:55 7,8 C 7,7 C 7,8 C 79 % 1011,8 hPa 0,0 l/m 24,1 km/h (4 Bft) W 270 0 min 0,0 UV-I 35 W/m 38,6 km/h (6 Bft)
09.03.2019 18:00 8,1 C 7,8 C 8,1 C 77 % 1011,9 hPa 0,0 l/m 27,4 km/h (5 Bft) W 270 5 min 0,0 UV-I 37 W/m 40,2 km/h (6 Bft)
09.03.2019 18:05 8,3 C 8,0 C 8,3 C 75 % 1012,1 hPa 0,0 l/m 32,2 km/h (5 Bft) W 270 5 min 0,0 UV-I 30 W/m 46,7 km/h (6 Bft)
09.03.2019 18:10 8,3 C 8,3 C 8,3 C 74 % 1012,2 hPa 0,0 l/m 29,0 km/h (5 Bft) W 270 5 min 0,0 UV-I 23 W/m 41,8 km/h (6 Bft)
09.03.2019 18:15 8,4 C 8,3 C 8,4 C 74 % 1012,4 hPa 0,0 l/m 29,0 km/h (5 Bft) W 270 5 min 0,0 UV-I 14 W/m 40,2 km/h (6 Bft)
09.03.2019 18:20 8,3 C 8,3 C 8,4 C 74 % 1012,4 hPa 0,0 l/m 27,4 km/h (5 Bft) W 270 0 min 0,0 UV-I 11 W/m 45,1 km/h (6 Bft)
09.03.2019 18:25 8,5 C 8,3 C 8,5 C 73 % 1012,6 hPa 0,0 l/m 30,6 km/h (5 Bft) W 270 0 min 0,0 UV-I 9 W/m 48,3 km/h (6 Bft)
09.03.2019 18:30 8,4 C 8,4 C 8,6 C 73 % 1012,7 hPa 0,0 l/m 29,0 km/h (5 Bft) W 270 0 min 0,0 UV-I 0 W/m 43,5 km/h (6 Bft)
09.03.2019 18:35 8,6 C 8,4 C 8,6 C 73 % 1013,1 hPa 0,0 l/m 29,0 km/h (5 Bft) W 270 0 min 0,0 UV-I 0 W/m 43,5 km/h (6 Bft)
09.03.2019 18:40 8,3 C 8,3 C 8,6 C 75 % 1013,1 hPa 0,0 l/m 24,1 km/h (4 Bft) W 270 0 min 0,0 UV-I 0 W/m 40,2 km/h (6 Bft)
09.03.2019 18:45 8,6 C 8,3 C 8,6 C 74 % 1013,4 hPa 0,0 l/m 27,4 km/h (5 Bft) W 270 0 min 0,0 UV-I 0 W/m 38,6 km/h (6 Bft)
09.03.2019 18:50 8,6 C 8,5 C 8,6 C 73 % 1013,2 hPa 0,0 l/m 25,7 km/h (4 Bft) W 270 0 min 0,0 UV-I 0 W/m 40,2 km/h (6 Bft)
09.03.2019 18:55 8,6 C 8,5 C 8,6 C 74 % 1013,3 hPa 0,0 l/m 25,7 km/h (4 Bft) W 270 0 min 0,0 UV-I 0 W/m 38,6 km/h (6 Bft)
09.03.2019 19:00 8,6 C 8,5 C 8,6 C 73 % 1013,4 hPa 0,0 l/m 25,7 km/h (4 Bft) W 270 0 min 0,0 UV-I 0 W/m 35,4 km/h (5 Bft)
09.03.2019 19:05 8,3 C 8,3 C 8,5 C 75 % 1013,6 hPa 0,0 l/m 22,5 km/h (4 Bft) W 270 0 min 0,0 UV-I 0 W/m 30,6 km/h (5 Bft)
09.03.2019 19:10 8,3 C 8,2 C 8,3 C 75 % 1013,8 hPa 0,0 l/m 19,3 km/h (3 Bft) W 270 0 min 0,0 UV-I 0 W/m 30,6 km/h (5 Bft)
09.03.2019 19:15 8,3 C 8,3 C 8,4 C 74 % 1013,9 hPa 0,0 l/m 20,9 km/h (4 Bft) W 270 0 min 0,0 UV-I 0 W/m 32,2 km/h (5 Bft)
09.03.2019 19:20 8,2 C 8,2 C 8,3 C 75 % 1014,0 hPa 0,0 l/m 19,3 km/h (3 Bft) W 270 0 min 0,0 UV-I 0 W/m 30,6 km/h (5 Bft)
09.03.2019 19:25 8,2 C 8,2 C 8,3 C 76 % 1014,2 hPa 0,0 l/m 16,1 km/h (3 Bft) W 270 0 min 0,0 UV-I 0 W/m 27,4 km/h (5 Bft)
09.03.2019 19:30 8,3 C 8,2 C 8,3 C 75 % 1014,3 hPa 0,0 l/m 17,7 km/h (3 Bft) W 270 0 min 0,0 UV-I 0 W/m 27,4 km/h (5 Bft)
09.03.2019 19:35 8,4 C 8,2 C 8,4 C 74 % 1014,4 hPa 0,0 l/m 19,3 km/h (3 Bft) W 270 0 min 0,0 UV-I 0 W/m 29,0 km/h (5 Bft)
09.03.2019 19:40 8,3 C 8,3 C 8,3 C 74 % 1014,5 hPa 0,0 l/m 19,3 km/h (3 Bft) W 270 0 min 0,0 UV-I 0 W/m 27,4 km/h (5 Bft)
09.03.2019 19:45 8,2 C 8,2 C 8,3 C 74 % 1014,5 hPa 0,0 l/m 19,3 km/h (3 Bft) W 270 0 min 0,0 UV-I 0 W/m 27,4 km/h (5 Bft)
09.03.2019 19:50 8,1 C 8,1 C 8,2 C 75 % 1014,5 hPa 0,0 l/m 17,7 km/h (3 Bft) W 270 0 min 0,0 UV-I 0 W/m 27,4 km/h (5 Bft)
09.03.2019 19:55 8,2 C 8,1 C 8,2 C 74 % 1014,6 hPa 0,0 l/m 16,1 km/h (3 Bft) W 270 0 min 0,0 UV-I 0 W/m 27,4 km/h (5 Bft)
09.03.2019 20:00 8,2 C 8,2 C 8,3 C 75 % 1014,7 hPa 0,0 l/m 16,1 km/h (3 Bft) W 270 0 min 0,0 UV-I 0 W/m 25,7 km/h (4 Bft)
09.03.2019 20:05 8,1 C 8,1 C 8,2 C 75 % 1014,8 hPa 0,0 l/m 16,1 km/h (3 Bft) W 270 0 min 0,0 UV-I 0 W/m 29,0 km/h (5 Bft)
09.03.2019 20:10 8,0 C 8,0 C 8,1 C 76 % 1014,8 hPa 0,0 l/m 16,1 km/h (3 Bft) W 270 0 min 0,0 UV-I 0 W/m 25,7 km/h (4 Bft)
09.03.2019 20:15 7,9 C 7,9 C 8,0 C 76 % 1014,8 hPa 0,0 l/m 16,1 km/h (3 Bft) W 270 0 min 0,0 UV-I 0 W/m 27,4 km/h (5 Bft)
09.03.2019 20:20 7,8 C 7,8 C 7,9 C 77 % 1014,9 hPa 0,0 l/m 14,5 km/h (3 Bft) W 270 0 min 0,0 UV-I 0 W/m 22,5 km/h (4 Bft)
09.03.2019 20:25 7,8 C 7,7 C 7,8 C 77 % 1014,9 hPa 0,0 l/m 11,3 km/h (2 Bft) W 270 0 min 0,0 UV-I 0 W/m 20,9 km/h (4 Bft)
09.03.2019 20:30 7,8 C 7,7 C 7,8 C 78 % 1015,0 hPa 0,0 l/m 11,3 km/h (2 Bft) W 270 0 min 0,0 UV-I 0 W/m 24,1 km/h (4 Bft)
09.03.2019 20:35 7,8 C 7,8 C 7,8 C 78 % 1015,0 hPa 0,0 l/m 9,7 km/h (2 Bft) W 270 0 min 0,0 UV-I 0 W/m 16,1 km/h (3 Bft)
09.03.2019 20:40 7,7 C 7,7 C 7,8 C 79 % 1015,3 hPa 0,0 l/m 6,4 km/h (2 Bft) W 270 0 min 0,0 UV-I 0 W/m 12,9 km/h (3 Bft)
09.03.2019 20:45 7,7 C 7,6 C 7,7 C 79 % 1015,2 hPa 0,0 l/m 4,8 km/h (1 Bft) W 270 0 min 0,0 UV-I 0 W/m 12,9 km/h (3 Bft)
09.03.2019 20:50 7,6 C 7,6 C 7,7 C 80 % 1015,3 hPa 0,0 l/m 3,2 km/h (1 Bft) W-SW 247 0 min 0,0 UV-I 0 W/m 9,7 km/h (2 Bft)
09.03.2019 20:55 7,6 C 7,6 C 7,7 C 79 % 1015,3 hPa 0,0 l/m 4,8 km/h (1 Bft) W 270 0 min 0,0 UV-I 0 W/m 11,3 km/h (2 Bft)
09.03.2019 21:00 7,6 C 7,6 C 7,6 C 81 % 1015,3 hPa 0,0 l/m 3,2 km/h (1 Bft) W-SW 247 0 min 0,0 UV-I 0 W/m 8,0 km/h (2 Bft)
09.03.2019 21:05 7,4 C 7,4 C 7,6 C 81 % 1015,3 hPa 0,0 l/m 4,8 km/h (1 Bft) SW 225 0 min 0,0 UV-I 0 W/m 11,3 km/h (2 Bft)
09.03.2019 21:10 7,4 C 7,3 C 7,4 C 80 % 1015,3 hPa 0,0 l/m 6,4 km/h (2 Bft) SW 225 0 min 0,0 UV-I 0 W/m 11,3 km/h (2 Bft)
09.03.2019 21:15 7,3 C 7,3 C 7,4 C 81 % 1015,2 hPa 0,0 l/m 6,4 km/h (2 Bft) SW 225 0 min 0,0 UV-I 0 W/m 12,9 km/h (3 Bft)
09.03.2019 21:20 7,3 C 7,3 C 7,3 C 80 % 1015,3 hPa 0,0 l/m 8,0 km/h (2 Bft) SW 225 0 min 0,0 UV-I 0 W/m 16,1 km/h (3 Bft)
09.03.2019 21:25 7,2 C 7,2 C 7,3 C 81 % 1015,3 hPa 0,0 l/m 6,4 km/h (2 Bft) SW 225 0 min 0,0 UV-I 0 W/m 11,3 km/h (2 Bft)
09.03.2019 21:30 7,1 C 7,1 C 7,2 C 81 % 1015,3 hPa 0,0 l/m 6,4 km/h (2 Bft) SW 225 0 min 0,0 UV-I 0 W/m 11,3 km/h (2 Bft)
09.03.2019 21:35 7,1 C 7,1 C 7,2 C 80 % 1015,3 hPa 0,0 l/m 6,4 km/h (2 Bft) SW 225 0 min 0,0 UV-I 0 W/m 11,3 km/h (2 Bft)
09.03.2019 21:40 7,1 C 7,1 C 7,1 C 80 % 1015,4 hPa 0,0 l/m 6,4 km/h (2 Bft) SW 225 0 min 0,0 UV-I 0 W/m 11,3 km/h (2 Bft)
09.03.2019 21:45 7,1 C 7,1 C 7,2 C 80 % 1015,5 hPa 0,0 l/m 6,4 km/h (2 Bft) SW 225 0 min 0,0 UV-I 0 W/m 14,5 km/h (3 Bft)
09.03.2019 21:50 7,3 C 7,1 C 7,3 C 79 % 1015,4 hPa 0,0 l/m 8,0 km/h (2 Bft) SW 225 0 min 0,0 UV-I 0 W/m 17,7 km/h (3 Bft)
09.03.2019 21:55 7,3 C 7,2 C 7,3 C 77 % 1015,6 hPa 0,0 l/m 6,4 km/h (2 Bft) SW 225 0 min 0,0 UV-I 0 W/m 12,9 km/h (3 Bft)
09.03.2019 22:00 7,4 C 7,3 C 7,4 C 76 % 1015,6 hPa 0,0 l/m 8,0 km/h (2 Bft) S-SW 202 0 min 0,0 UV-I 0 W/m 16,1 km/h (3 Bft)
09.03.2019 22:05 7,4 C 7,4 C 7,4 C 76 % 1015,6 hPa 0,0 l/m 4,8 km/h (1 Bft) W 270 0 min 0,0 UV-I 0 W/m 12,9 km/h (3 Bft)
09.03.2019 22:10 7,5 C 7,4 C 7,6 C 75 % 1015,5 hPa 0,0 l/m 6,4 km/h (2 Bft) SW 225 0 min 0,0 UV-I 0 W/m 12,9 km/h (3 Bft)
09.03.2019 22:15 7,5 C 7,4 C 7,6 C 74 % 1015,5 hPa 0,0 l/m 8,0 km/h (2 Bft) SW 225 0 min 0,0 UV-I 0 W/m 16,1 km/h (3 Bft)
09.03.2019 22:20 7,6 C 7,5 C 7,6 C 73 % 1015,5 hPa 0,0 l/m 9,7 km/h (2 Bft) SW 225 0 min 0,0 UV-I 0 W/m 17,7 km/h (3 Bft)
09.03.2019 22:25 7,6 C 7,6 C 7,7 C 73 % 1015,5 hPa 0,0 l/m 9,7 km/h (2 Bft) SW 225 0 min 0,0 UV-I 0 W/m 17,7 km/h (3 Bft)
09.03.2019 22:30 7,6 C 7,6 C 7,7 C 74 % 1015,4 hPa 0,0 l/m 8,0 km/h (2 Bft) SW 225 0 min 0,0 UV-I 0 W/m 16,1 km/h (3 Bft)
09.03.2019 22:35 7,7 C 7,6 C 7,7 C 74 % 1015,5 hPa 0,0 l/m 9,7 km/h (2 Bft) SW 225 0 min 0,0 UV-I 0 W/m 17,7 km/h (3 Bft)
09.03.2019 22:40 7,7 C 7,7 C 7,7 C 72 % 1015,4 hPa 0,0 l/m 8,0 km/h (2 Bft) SW 225 0 min 0,0 UV-I 0 W/m 22,5 km/h (4 Bft)
09.03.2019 22:45 7,7 C 7,7 C 7,8 C 73 % 1015,3 hPa 0,0 l/m 6,4 km/h (2 Bft) SW 225 0 min 0,0 UV-I 0 W/m 16,1 km/h (3 Bft)
09.03.2019 22:50 7,7 C 7,7 C 7,7 C 73 % 1015,4 hPa 0,0 l/m 6,4 km/h (2 Bft) SW 225 0 min 0,0 UV-I 0 W/m 17,7 km/h (3 Bft)
09.03.2019 22:55 7,5 C 7,5 C 7,7 C 75 % 1015,4 hPa 0,0 l/m 6,4 km/h (2 Bft) SW 225 0 min 0,0 UV-I 0 W/m 11,3 km/h (2 Bft)
09.03.2019 23:00 7,6 C 7,5 C 7,6 C 74 % 1015,4 hPa 0,0 l/m 6,4 km/h (2 Bft) SW 225 0 min 0,0 UV-I 0 W/m 16,1 km/h (3 Bft)
09.03.2019 23:05 7,7 C 7,6 C 7,7 C 74 % 1015,4 hPa 0,0 l/m 9,7 km/h (2 Bft) SW 225 0 min 0,0 UV-I 0 W/m 16,1 km/h (3 Bft)
09.03.2019 23:10 7,8 C 7,7 C 7,8 C 73 % 1015,5 hPa 0,0 l/m 8,0 km/h (2 Bft) W 270 0 min 0,0 UV-I 0 W/m 17,7 km/h (3 Bft)
09.03.2019 23:15 7,8 C 7,8 C 7,8 C 74 % 1015,6 hPa 0,0 l/m 9,7 km/h (2 Bft) SW 225 0 min 0,0 UV-I 0 W/m 16,1 km/h (3 Bft)
09.03.2019 23:20 8,0 C 7,8 C 8,0 C 73 % 1015,5 hPa 0,0 l/m 12,9 km/h (3 Bft) SW 225 0 min 0,0 UV-I 0 W/m 19,3 km/h (3 Bft)
09.03.2019 23:25 8,1 C 7,9 C 8,1 C 73 % 1015,6 hPa 0,0 l/m 9,7 km/h (2 Bft) W-SW 247 0 min 0,0 UV-I 0 W/m 22,5 km/h (4 Bft)
09.03.2019 23:30 8,1 C 7,9 C 8,1 C 73 % 1015,5 hPa 0,0 l/m 9,7 km/h (2 Bft) SW 225 0 min 0,0 UV-I 0 W/m 19,3 km/h (3 Bft)
09.03.2019 23:35 8,2 C 8,1 C 8,2 C 73 % 1015,4 hPa 0,0 l/m 8,0 km/h (2 Bft) SW 225 0 min 0,0 UV-I 0 W/m 17,7 km/h (3 Bft)
09.03.2019 23:40 8,2 C 8,2 C 8,2 C 72 % 1015,3 hPa 0,0 l/m 8,0 km/h (2 Bft) SW 225 0 min 0,0 UV-I 0 W/m 19,3 km/h (3 Bft)
09.03.2019 23:45 8,1 C 8,1 C 8,2 C 73 % 1015,4 hPa 0,0 l/m 8,0 km/h (2 Bft) S-SW 202 0 min 0,0 UV-I 0 W/m 16,1 km/h (3 Bft)
09.03.2019 23:50 8,0 C 8,0 C 8,1 C 74 % 1015,4 hPa 0,0 l/m 6,4 km/h (2 Bft) SW 225 0 min 0,0 UV-I 0 W/m 12,9 km/h (3 Bft)
09.03.2019 23:55 8,1 C 7,9 C 8,1 C 74 % 1015,3 hPa 0,0 l/m 8,0 km/h (2 Bft) SW 225 0 min 0,0 UV-I 0 W/m 16,1 km/h (3 Bft)
_ Min-Zeit 17:30 17:30 17:30 13:35 15:40 - 20:50 - - - - - 21:00
Minimum _ 6,9 C 6,9 C 7,0 C 70 % 1008,2 hPa - 3,2 km/h (1 Bft) - - - - - 8,0 km/h (2 Bft)
_ Max-Zeit 13:10 13:40 13:10 04:40 21:55 17:20 17:20 - - 07:15 13:10 15:10 17:20
Maximum _ 12,1 C 12,0 C 12,1 C 93 % 1015,6 hPa 0,6 l/m 53,1 km/h
W (7 Bft)
- - 5 min 2,9 UV-I 555 W/m 74,0 km/h
W-NW (9 Bft)
Durchschnitt _ 8,8 C 8,8 C 8,9 C 82 % 1011,5 hPa #3,0 l/m 18,3 km/h (3 Bft) SW - #1:45 h 1,2 UV-I 132 W/m 32,0 km/h (5 Bft)